CAPE
nan nan nan nan nan nan nan 8 11 11 1 nan 3 3 10 8 nan nan nan nan nan 0 nan nan nan 1 1 5 38 38 59 65 53 53 26 16 6 6 5 2 2 1 2 1 1 1 2 31 31 57 65 51 nan nan nan nan nan nan nan 3 3 39 77 42 42 8 nan nan 31 31 106 126 101 101 58 15 9 9 6 2 2 nan nan nan nan nan
nan nan nan nan nan nan nan 6 12 12 3 nan nan nan 9 50 92 92 12 15 15 72 66 12 12 34 116 16 26 26 35 39 27 27 17 7 3 3 0 0 0 0 0 nan nan nan 1 5 5 27 35 5 nan nan nan nan nan nan nan nan nan 5 45 34 34 8 nan nan 8 8 54 66 47 47 19 12 10 10 5 0 0 nan nan nan nan nan
nan nan nan nan nan nan nan 0 24 24 11 1 1 1 12 21 164 164 146 187 187 207 156 114 114 100 149 38 20 20 21 23 12 12 9 1 nan nan nan nan nan nan nan nan nan nan nan nan nan 3 1 nan nan nan nan nan nan nan nan nan nan nan 0 6 6 nan nan nan 0 0 9 14 9 9 10 10 5 5 nan nan nan nan nan nan nan nan
nan nan nan nan nan nan nan nan 27 27 38 8 11 11 9 26 129 129 127 137 137 200 126 149 149 180 180 84 18 18 13 14 17 17 8 nan nan nan nan nan nan nan nan nan nan nan nan nan nan nan nan nan nan nan nan nan nan nan nan nan nan nan nan nan nan nan nan nan nan nan nan 2 5 5 4 nan nan nan nan nan nan nan nan nan nan nan
nan nan nan nan nan nan nan nan 33 33 52 24 29 29 21 32 61 61 17 1 1 49 64 44 44 56 55 17 2 2 7 19 15 15 13 1 nan nan nan nan nan nan nan nan nan nan nan nan nan nan nan nan nan nan nan nan nan nan nan nan nan nan nan nan nan nan nan nan nan nan nan nan nan nan nan nan nan nan nan nan nan nan nan nan nan nan
nan nan nan nan nan nan nan nan 4 4 13 18 34 34 35 45 80 80 13 nan nan 6 17 13 13 4 nan nan nan nan 1 7 8 8 12 1 nan nan nan nan nan nan nan nan nan nan nan nan nan nan nan nan nan nan nan nan nan nan nan nan nan nan nan nan nan nan nan nan nan nan nan nan nan nan nan nan nan nan nan nan nan nan nan nan nan nan
5 nan nan nan nan nan nan nan 3 3 3 8 20 20 34 31 49 49 30 14 14 1 nan 0 0 nan nan nan nan nan nan nan nan nan nan nan nan nan nan nan nan nan nan nan nan nan nan nan nan nan nan nan nan nan nan nan nan nan nan nan nan nan nan nan nan nan nan nan nan nan nan nan nan nan nan nan nan nan nan nan nan nan nan nan nan nan
55 20 nan nan nan nan nan nan nan nan nan 1 9 9 21 16 11 11 27 nan nan nan nan nan nan nan nan 0 nan nan nan nan nan nan nan nan nan nan nan nan nan nan nan nan nan nan nan nan nan nan nan nan nan nan nan nan nan nan nan nan nan nan nan nan nan nan nan nan nan nan nan nan nan nan nan nan nan nan nan nan nan nan nan nan nan nan
79 56 1 nan nan nan nan nan nan nan nan nan nan nan 13 16 7 7 12 1 1 nan nan nan nan nan 0 nan nan nan nan nan nan nan nan nan nan nan nan nan nan nan nan nan nan nan nan nan nan nan nan nan nan nan nan nan nan nan nan nan nan nan nan nan nan nan nan nan nan nan nan nan nan nan nan nan nan nan nan nan nan nan nan nan nan nan
97 83 26 nan nan nan nan nan nan nan nan nan nan nan nan 15 9 9 3 1 1 nan nan nan nan 1 0 0 nan nan nan nan nan nan 0 nan nan nan nan nan nan nan nan nan nan nan nan nan nan nan nan nan nan nan nan nan nan nan nan nan nan nan nan nan nan nan nan nan nan nan nan nan nan nan nan nan nan nan nan nan nan nan nan nan nan nan
88 84 54 21 21 nan nan nan nan nan nan nan nan nan nan nan 13 13 5 2 2 nan nan 0 0 0 0 1 0 0 1 0 nan nan nan nan nan nan nan nan nan nan nan nan nan nan nan nan nan nan nan nan nan nan nan nan nan nan nan nan nan nan nan nan nan nan nan nan nan nan nan nan nan nan nan nan nan nan nan nan nan nan nan nan nan nan
70 62 40 21 21 8 nan nan nan nan nan nan nan nan nan nan 2 2 8 7 7 3 nan nan nan nan nan 2 3 3 2 0 0 0 nan nan nan nan nan nan nan nan nan nan nan nan nan nan nan nan nan nan nan nan nan nan nan nan nan nan nan nan nan nan nan nan nan nan nan nan nan nan nan nan nan nan nan nan nan nan nan nan nan nan nan nan
65 26 1 1 1 0 3 nan nan nan nan nan nan nan nan nan nan nan 8 2 2 2 nan nan nan nan 0 3 6 6 6 3 1 1 0 nan nan nan nan nan nan nan nan nan nan nan nan nan nan nan nan nan nan nan nan nan nan nan nan nan nan nan nan nan nan nan nan nan nan nan nan nan nan nan nan nan nan nan nan nan nan nan nan nan nan nan
38 0 2 nan nan nan 6 4 nan nan 4 nan nan nan nan nan nan nan 9 0 0 nan nan nan nan nan nan nan 9 9 9 8 4 4 1 0 0 0 nan nan nan nan nan nan nan nan nan nan nan nan nan nan nan nan nan nan nan nan nan nan nan nan nan nan nan nan nan nan nan nan nan nan nan nan nan nan nan nan nan nan nan nan nan nan nan nan
3 2 37 37 37 16 4 5 6 6 5 nan nan nan nan nan nan nan 16 4 4 nan nan nan nan nan nan nan 6 6 6 6 6 6 4 4 1 1 nan nan nan nan nan nan nan nan nan nan nan nan nan nan nan nan nan nan nan nan nan nan nan nan nan nan nan nan nan nan nan nan nan nan nan nan nan nan nan nan nan nan nan nan nan nan nan nan
8 4 3 18 18 24 12 25 11 11 3 nan nan nan nan nan 1 1 18 8 8 nan nan nan nan nan nan nan nan nan 3 4 6 6 6 5 2 2 nan nan nan nan nan nan nan nan nan nan nan nan nan nan nan nan nan nan nan nan nan nan nan nan nan nan nan nan nan nan nan nan nan nan nan nan nan nan nan nan nan nan nan nan nan nan nan nan
3 2 2 3 3 5 9 9 12 12 10 1 2 2 0 nan 8 8 18 6 6 nan nan nan nan nan nan nan nan nan 1 2 3 3 4 4 3 3 nan nan nan nan nan nan nan nan nan nan nan nan nan nan nan nan nan nan nan nan nan nan nan nan nan nan nan nan nan nan nan nan nan nan nan nan nan nan nan nan nan nan nan nan nan nan nan nan
4 3 2 2 2 3 3 2 2 2 4 8 12 12 8 0 nan nan 13 1 1 nan nan nan nan nan nan nan nan nan nan 1 1 1 1 3 2 2 nan nan nan nan nan nan nan nan nan nan nan nan nan nan nan nan nan nan nan nan nan nan nan nan nan nan nan nan nan nan nan nan nan nan nan nan nan nan nan nan nan nan nan nan nan nan nan nan
3 2 3 2 2 3 3 3 3 3 2 1 6 6 12 6 4 4 9 nan nan nan nan nan nan nan nan nan nan nan nan nan nan nan nan nan nan nan nan 0 0 1 nan nan nan nan nan nan nan nan nan nan nan nan nan nan nan nan nan nan nan nan nan nan nan nan nan nan nan nan nan nan nan nan nan nan nan nan nan nan nan nan nan nan nan nan
2 1 2 1 1 2 3 3 5 5 6 4 2 2 7 6 9 9 12 1 1 1 nan nan nan nan nan nan nan nan nan nan nan nan nan nan nan nan nan 0 0 2 3 nan nan nan nan nan nan nan nan nan nan nan nan nan nan nan nan nan nan nan nan nan nan nan nan nan nan nan nan nan nan nan nan nan nan nan nan nan nan nan nan nan nan nan
1 1 1 2 2 3 3 4 6 6 9 6 3 3 5 8 4 4 10 2 2 3 nan nan nan nan nan nan nan nan nan nan nan nan nan nan nan nan nan nan nan nan nan 1 1 1 nan nan nan nan nan nan nan nan nan nan nan nan nan nan nan nan nan nan nan nan nan nan nan nan nan nan nan nan nan nan nan nan nan nan nan nan nan nan nan nan
2 1 0 1 1 3 6 5 11 11 9 5 3 3 5 8 8 8 3 3 3 6 nan nan nan nan nan nan nan nan nan nan nan nan nan nan nan nan nan nan nan nan nan nan nan 1 2 2 2 2 nan nan nan nan nan nan nan nan nan nan nan nan nan nan nan nan nan nan nan nan nan nan nan nan nan nan nan nan nan nan nan nan nan nan nan nan
3 1 0 0 0 3 7 7 10 10 9 5 4 4 3 5 4 4 4 1 1 nan nan nan nan nan nan nan nan nan nan nan nan nan nan nan nan nan nan nan nan nan nan nan nan nan nan 1 1 8 9 1 nan nan nan nan nan nan nan nan nan nan nan nan nan nan nan nan nan nan nan nan nan nan nan nan nan nan nan nan nan nan nan nan nan nan
1 1 1 1 1 0 6 9 8 8 7 6 5 5 5 4 5 5 nan nan nan nan nan nan nan nan nan nan nan nan nan nan nan nan nan nan nan nan nan nan nan nan nan nan nan nan nan 0 0 5 14 9 4 4 0 nan nan nan nan nan nan nan nan nan nan nan nan 1 3 3 5 3 1 1 nan nan nan nan nan nan nan nan nan nan nan nan
2 2 2 2 2 6 10 8 10 10 8 4 4 4 3 5 4 4 nan nan nan nan nan nan nan nan nan nan nan nan nan nan nan nan nan nan nan nan nan nan nan nan nan nan nan nan nan nan nan 2 13 12 8 8 6 3 3 2 0 nan nan nan nan 0 0 1 4 8 9 9 10 7 1 1 nan nan nan nan nan nan nan nan nan nan nan nan
19 15 11 16 16 26 31 32 26 26 18 7 2 2 3 6 nan nan nan nan nan nan nan nan nan nan nan nan nan nan nan nan nan nan nan nan nan nan nan nan nan nan nan nan nan nan nan nan nan nan 1 9 11 11 8 7 7 10 15 14 14 11 10 9 9 11 8 7 6 6 6 3 nan nan nan nan nan nan nan nan nan nan nan nan nan nan
43 39 38 33 33 29 30 33 31 31 30 21 7 7 3 4 nan nan nan nan nan nan nan nan nan nan nan nan nan nan nan nan nan nan nan nan nan nan nan nan nan nan nan nan nan nan nan nan nan nan nan 0 3 3 4 9 9 14 22 20 20 14 9 7 7 5 2 1 0 0 nan nan nan nan nan nan nan nan nan nan nan nan nan nan nan nan
35 36 30 26 26 25 26 29 30 30 30 28 26 26 8 1 nan nan nan nan nan nan nan nan nan nan nan nan nan nan nan nan nan nan nan nan nan nan nan nan nan nan nan nan nan nan nan nan nan nan nan nan nan nan 0 nan nan 3 6 6 6 5 2 1 1 0 nan nan nan nan nan nan nan nan nan nan nan nan nan nan nan nan nan nan nan nan
23 26 26 25 25 22 23 25 30 30 31 30 30 30 10 0 nan nan nan 0 0 nan nan nan nan nan nan nan nan nan nan nan nan nan nan nan nan nan nan nan nan nan nan nan nan nan nan nan nan nan nan nan nan nan nan nan nan nan nan nan nan nan nan nan nan nan nan nan nan nan nan nan nan nan nan nan nan nan nan nan nan nan nan nan nan nan
4 10 12 17 17 15 12 6 22 22 30 28 31 31 15 nan nan nan nan nan nan nan nan nan nan nan nan nan nan nan nan nan nan nan nan nan nan nan nan nan nan nan nan nan nan nan nan nan nan nan nan nan nan nan nan nan nan nan nan 0 0 nan nan nan nan nan nan nan nan nan nan nan nan nan nan nan nan nan nan nan nan nan nan nan nan nan
nan nan nan nan nan 1 nan nan 5 5 20 24 23 23 12 nan nan nan nan nan nan nan nan nan nan nan nan nan nan nan nan nan nan nan nan nan nan nan nan nan nan nan nan nan nan nan nan nan nan nan nan nan nan nan nan nan nan nan nan nan nan nan 0 nan nan nan nan nan nan nan nan nan nan nan nan nan nan nan nan nan nan nan nan nan nan nan
nan nan nan nan nan nan nan nan nan nan nan nan nan nan 6 5 0 0 nan nan nan nan nan nan nan nan nan nan nan nan nan nan 1 1 nan nan nan nan nan nan nan nan nan nan nan nan nan nan nan nan nan nan nan nan nan nan nan nan nan nan nan nan 0 nan nan nan nan nan nan nan nan nan nan nan nan nan nan nan nan nan nan nan nan nan nan nan
nan nan nan nan nan nan nan nan nan nan nan nan nan nan nan 0 3 3 nan nan nan nan nan nan nan nan nan nan nan nan nan nan 1 1 nan nan nan nan nan nan nan nan nan nan nan nan nan nan nan nan nan nan nan nan nan nan nan nan nan nan nan nan nan nan nan nan nan nan nan nan nan nan nan nan nan nan nan nan nan nan nan nan nan nan nan nan
nan nan nan nan nan nan nan nan nan nan nan nan 1 1 nan nan nan nan 0 nan nan nan nan nan nan nan nan nan nan nan nan nan 2 2 0 nan nan nan nan nan nan nan nan nan nan nan nan nan nan nan nan nan nan nan nan nan nan nan nan nan nan nan nan nan nan nan nan nan nan nan nan nan nan nan nan nan nan nan nan nan nan nan nan nan nan nan
nan nan nan nan nan nan nan nan nan nan nan nan nan nan 0 nan nan nan nan nan nan nan nan nan nan nan nan nan nan nan nan nan 1 1 1 nan nan nan nan nan nan nan nan nan nan nan nan nan nan nan nan nan nan nan nan nan nan nan nan nan nan nan nan nan nan nan nan nan nan nan nan nan nan nan nan nan nan nan nan nan nan nan nan nan nan nan
nan nan nan nan nan nan nan nan nan nan nan nan nan nan nan nan nan nan nan nan nan nan 0 nan nan nan nan nan nan nan nan nan 0 0 0 nan nan nan nan nan nan nan nan nan nan nan nan nan nan nan nan nan nan nan nan nan nan nan nan nan nan nan nan nan nan nan nan nan nan nan nan nan nan nan nan nan nan nan nan nan nan nan nan nan nan nan
nan nan nan nan nan nan nan nan nan nan nan nan nan nan nan nan nan nan nan nan nan nan nan 0 0 nan 2 nan nan nan nan nan nan nan nan nan nan nan nan nan nan nan nan nan nan nan nan nan nan nan nan nan nan nan nan nan nan nan nan nan nan nan nan nan nan nan nan nan nan nan nan nan nan nan nan nan nan nan nan nan nan nan nan nan nan nan
nan nan nan nan nan nan nan nan nan nan nan nan nan nan nan nan nan nan nan nan nan nan nan nan nan nan 2 2 nan nan nan nan nan nan nan nan nan nan nan nan nan nan nan nan nan nan nan nan nan nan nan nan nan nan nan nan nan nan nan nan nan nan nan nan nan nan nan nan nan nan nan nan nan nan nan nan nan nan nan nan nan nan nan nan nan nan
nan nan nan nan nan nan nan nan nan nan nan nan nan nan nan nan nan nan nan nan nan nan nan nan nan nan nan nan 1 1 0 nan nan nan nan nan nan nan nan nan nan nan nan nan nan nan nan nan nan nan nan nan nan nan nan nan nan nan nan nan nan nan nan nan nan nan nan nan nan nan nan nan nan nan nan nan nan nan nan nan nan nan nan nan nan nan
nan nan nan nan nan nan nan nan nan nan nan nan nan nan nan nan nan nan nan nan nan nan nan nan nan nan nan nan 0 0 nan nan nan nan nan nan nan nan nan nan nan nan nan nan nan nan nan nan nan nan nan nan nan nan nan nan nan nan nan nan nan nan nan nan nan nan nan nan nan nan nan nan nan nan nan nan nan nan nan nan nan nan nan nan nan nan
nan nan nan nan nan nan nan nan nan nan nan nan nan nan nan nan nan nan nan nan nan nan nan nan nan nan nan nan nan nan nan nan nan nan nan nan nan nan nan nan nan nan nan nan nan nan nan nan nan nan nan nan nan nan nan nan nan nan nan nan nan nan nan nan nan nan nan nan nan nan nan nan nan nan nan nan nan nan nan nan nan nan nan nan nan nan
0 nan nan nan nan nan nan nan nan nan nan nan nan nan nan nan nan nan nan nan nan nan nan nan nan nan nan nan nan nan nan nan nan nan nan nan nan nan nan nan nan nan nan nan nan nan nan nan nan nan nan nan nan nan nan nan nan nan nan nan nan nan nan nan nan nan nan nan nan nan nan nan nan nan nan nan nan nan nan nan nan nan nan nan nan nan
nan nan nan nan nan nan nan nan nan nan nan nan nan nan nan nan nan nan nan nan nan nan nan nan nan nan nan nan nan nan nan nan nan nan nan nan nan nan nan nan nan nan nan nan nan nan nan nan nan nan nan nan nan nan nan nan nan nan nan nan nan nan nan nan nan nan nan nan nan nan nan nan nan nan nan nan nan nan nan nan nan nan nan nan nan nan
nan nan nan nan nan nan nan nan nan nan nan nan nan nan nan nan nan nan nan nan nan nan nan nan nan nan nan nan nan nan nan nan nan nan nan 1 nan nan nan nan nan nan nan nan nan nan nan nan nan nan nan nan nan nan nan nan nan nan nan nan nan nan nan nan nan nan nan nan nan nan nan nan nan nan nan nan nan nan nan nan nan nan nan nan nan nan
nan nan nan nan nan nan nan nan nan nan nan nan nan nan nan nan nan nan nan nan nan nan nan nan nan nan nan nan nan nan nan nan nan nan nan 2 4 4 nan nan nan nan nan nan nan nan nan nan nan nan nan nan nan nan nan nan nan nan nan nan nan nan nan nan nan nan nan nan nan nan nan nan nan nan nan nan nan nan nan nan nan nan nan nan nan nan
nan nan nan nan nan nan nan nan nan nan nan nan nan nan nan nan nan nan nan nan nan nan nan nan nan nan nan nan nan nan nan nan nan nan nan nan nan nan nan nan nan nan nan nan nan nan nan nan nan nan nan nan nan nan nan nan nan nan nan nan nan nan nan nan nan nan nan nan nan nan nan nan nan nan nan nan nan nan nan nan nan nan nan nan nan nan
nan nan nan nan nan nan nan nan nan nan nan nan nan nan nan nan nan nan nan nan nan nan nan nan nan nan nan nan nan nan nan nan nan nan nan nan nan nan nan nan nan nan nan nan nan nan nan nan nan nan nan nan nan nan nan nan nan nan nan nan nan nan nan nan nan nan nan nan nan nan nan nan nan nan nan nan nan nan nan nan nan nan nan nan nan nan
nan nan nan nan nan nan nan nan nan nan nan nan nan nan nan nan nan nan nan nan nan nan nan nan nan nan nan nan nan nan nan nan nan nan nan nan nan nan nan nan nan nan nan nan nan nan nan nan nan nan nan nan nan nan nan nan nan nan nan nan nan nan nan nan nan nan nan nan nan nan nan nan nan nan nan nan nan nan nan nan nan nan nan nan nan nan
nan nan nan nan nan nan nan nan nan nan nan nan nan nan nan nan 7 7 nan nan nan nan nan nan nan nan nan nan nan nan nan nan nan nan nan nan nan nan nan nan nan nan nan nan nan nan nan nan nan nan nan nan nan nan nan nan nan nan nan nan nan nan nan nan nan nan nan nan nan nan nan nan nan nan nan nan nan nan nan nan nan nan nan nan nan nan
nan nan nan nan nan nan nan nan nan nan nan nan nan nan nan nan nan nan nan nan nan nan nan nan nan nan nan nan nan nan nan nan nan nan nan nan nan nan nan nan nan nan nan nan nan nan nan nan nan nan 1 nan nan nan nan nan nan nan nan nan nan nan nan nan nan nan nan nan nan nan nan nan nan nan nan nan nan nan nan nan nan nan nan nan nan nan
nan nan nan nan nan nan nan nan nan nan nan nan nan nan nan nan nan nan nan nan nan nan nan nan nan nan nan nan nan nan nan nan nan nan nan nan nan nan nan nan nan nan nan nan nan nan nan nan nan nan 0 8 nan nan nan nan nan nan nan nan nan nan nan nan nan nan nan nan nan nan nan nan nan nan nan nan nan nan nan nan nan nan nan nan nan nan
CIN
nan nan nan nan nan nan nan -86 -72 -72 -88 nan -51 -51 -28 -2 nan nan nan nan nan -175 nan nan nan -225 -236 -231 -176 -176 -149 -143 -3 -3 -191 -226 -277 -277 -301 -338 -338 -361 -371 -395 -395 -397 -383 -323 -323 -282 -264 -279 nan nan nan nan nan nan nan -242 -242 -174 -141 -189 -189 -255 nan nan -1 -1 -1 -0 -0 -0 -0 -0 -0 -0 -0 -0 -0 nan nan nan nan nan
nan nan nan nan nan nan nan -100 -74 -74 -72 nan nan nan -1 -0 -1 -1 -44 -64 -64 -46 -47 -126 -126 -115 -13 -190 -180 -180 -166 -160 -175 -175 -192 -227 -267 -267 -307 -331 -331 -355 -380 nan nan nan -401 -381 -381 -323 -307 -374 nan nan nan nan nan nan nan nan nan -208 -152 -188 -188 -244 nan nan -2 -2 -2 -0 -0 -0 -0 -0 -0 -0 -0 -0 -0 nan nan nan nan nan
nan nan nan nan nan nan nan -129 -56 -56 -64 -67 -36 -36 -1 -0 -0 -0 -6 -5 -5 -4 -4 -28 -28 -33 -8 -141 -176 -176 -174 -170 -187 -187 -194 -232 nan nan nan nan nan nan nan nan nan nan nan nan nan -383 -394 nan nan nan nan nan nan nan nan nan nan nan -221 -228 -228 nan nan nan -6 -6 -3 -1 -0 -0 -0 -0 -1 -1 nan nan nan nan nan nan nan nan
nan nan nan nan nan nan nan nan -63 -63 -45 -64 -20 -20 -4 -0 -0 -0 -7 -6 -6 -4 -6 -5 -5 -4 -4 -7 -164 -164 -176 -173 -169 -169 -187 nan nan nan nan nan nan nan nan nan nan nan nan nan nan nan nan nan nan nan nan nan nan nan nan nan nan nan nan nan nan nan nan nan nan nan nan -7 -5 -5 -7 nan nan nan nan nan nan nan nan nan nan nan
nan nan nan nan nan nan nan nan -71 -71 -47 -41 -24 -24 -5 -0 -1 -1 -28 -53 -53 -11 -10 -12 -12 -10 -10 -13 -192 -192 -178 -157 -165 -165 -174 -209 nan nan nan nan nan nan nan nan nan nan nan nan nan nan nan nan nan nan nan nan nan nan nan nan nan nan nan nan nan nan nan nan nan nan nan nan nan nan nan nan nan nan nan nan nan nan nan nan nan nan
nan nan nan nan nan nan nan nan -90 -90 -65 -44 -27 -27 -10 -1 -1 -1 -16 nan nan -42 -19 -23 -23 -68 nan nan nan nan -186 -172 -173 -173 -173 -210 nan nan nan nan nan nan nan nan nan nan nan nan nan nan nan nan nan nan nan nan nan nan nan nan nan nan nan nan nan nan nan nan nan nan nan nan nan nan nan nan nan nan nan nan nan nan nan nan nan nan
-5 nan nan nan nan nan nan nan -92 -92 -71 -47 -33 -33 -22 -8 -1 -1 -2 -12 -12 -44 nan -73 -73 nan nan nan nan nan nan nan nan nan nan nan nan nan nan nan nan nan nan nan nan nan nan nan nan nan nan nan nan nan nan nan nan nan nan nan nan nan nan nan nan nan nan nan nan nan nan nan nan nan nan nan nan nan nan nan nan nan nan nan nan nan
-3 -9 nan nan nan nan nan nan nan nan nan -72 -47 -47 -31 -23 -9 -9 -1 nan nan nan nan nan nan nan nan -22 nan nan nan nan nan nan nan nan nan nan nan nan nan nan nan nan nan nan nan nan nan nan nan nan nan nan nan nan nan nan nan nan nan nan nan nan nan nan nan nan nan nan nan nan nan nan nan nan nan nan nan nan nan nan nan nan nan nan
-3 -4 -29 nan nan nan nan nan nan nan nan nan nan nan -36 -23 -12 -12 -5 -25 -25 nan nan nan nan nan -21 nan nan nan nan nan nan nan nan nan nan nan nan nan nan nan nan nan nan nan nan nan nan nan nan nan nan nan nan nan nan nan nan nan nan nan nan nan nan nan nan nan nan nan nan nan nan nan nan nan nan nan nan nan nan nan nan nan nan nan
-3 -3 -5 nan nan nan nan nan nan nan nan nan nan nan nan -25 -11 -11 -3 -16 -16 nan nan nan nan -16 -16 -20 nan nan nan nan nan nan -0 nan nan nan nan nan nan nan nan nan nan nan nan nan nan nan nan nan nan nan nan nan nan nan nan nan nan nan nan nan nan nan nan nan nan nan nan nan nan nan nan nan nan nan nan nan nan nan nan nan nan nan
-2 -3 -6 -28 -28 nan nan nan nan nan nan nan nan nan nan nan -14 -14 -2 -9 -9 nan nan -17 -17 -18 -15 -17 -1 -1 -1 -1 nan nan nan nan nan nan nan nan nan nan nan nan nan nan nan nan nan nan nan nan nan nan nan nan nan nan nan nan nan nan nan nan nan nan nan nan nan nan nan nan nan nan nan nan nan nan nan nan nan nan nan nan nan nan
-2 -2 -2 -14 -14 -49 nan nan nan nan nan nan nan nan nan nan -37 -37 -6 -6 -6 -21 nan nan nan nan nan -3 -1 -1 -1 -1 -1 -1 nan nan nan nan nan nan nan nan nan nan nan nan nan nan nan nan nan nan nan nan nan nan nan nan nan nan nan nan nan nan nan nan nan nan nan nan nan nan nan nan nan nan nan nan nan nan nan nan nan nan nan nan
-1 -3 -31 -34 -34 -52 -56 nan nan nan nan nan nan nan nan nan nan nan -16 -12 -12 -18 nan nan nan nan -12 -10 -4 -4 -2 -1 -1 -1 -1 nan nan nan nan nan nan nan nan nan nan nan nan nan nan nan nan nan nan nan nan nan nan nan nan nan nan nan nan nan nan nan nan nan nan nan nan nan nan nan nan nan nan nan nan nan nan nan nan nan nan nan
-3 -26 -9 nan nan nan -42 -48 nan nan -44 nan nan nan nan nan nan nan -27 -20 -20 nan nan nan nan nan nan nan -6 -6 -4 -2 -1 -1 -1 -1 -2 -2 nan nan nan nan nan nan nan nan nan nan nan nan nan nan nan nan nan nan nan nan nan nan nan nan nan nan nan nan nan nan nan nan nan nan nan nan nan nan nan nan nan nan nan nan nan nan nan nan
-0 -14 -2 -4 -4 -13 -46 -52 -47 -47 -48 nan nan nan nan nan nan nan -32 -23 -23 nan nan nan nan nan nan nan -11 -11 -7 -4 -2 -2 -1 -0 -2 -2 nan nan nan nan nan nan nan nan nan nan nan nan nan nan nan nan nan nan nan nan nan nan nan nan nan nan nan nan nan nan nan nan nan nan nan nan nan nan nan nan nan nan nan nan nan nan nan nan
-0 -0 -0 -0 -0 -1 -9 -6 -8 -8 -33 nan nan nan nan nan -46 -46 -39 -31 -31 nan nan nan nan nan nan nan nan nan -11 -6 -3 -3 -1 -0 -2 -2 nan nan nan nan nan nan nan nan nan nan nan nan nan nan nan nan nan nan nan nan nan nan nan nan nan nan nan nan nan nan nan nan nan nan nan nan nan nan nan nan nan nan nan nan nan nan nan nan
-0 -0 -0 -0 -0 -0 -0 -0 -0 -0 -0 -0 -16 -16 -21 nan -43 -43 -43 -36 -36 nan nan nan nan nan nan nan nan nan -21 -9 -4 -4 -2 -1 -2 -2 nan nan nan nan nan nan nan nan nan nan nan nan nan nan nan nan nan nan nan nan nan nan nan nan nan nan nan nan nan nan nan nan nan nan nan nan nan nan nan nan nan nan nan nan nan nan nan nan
-0 -0 -0 -0 -0 -0 -0 -0 -0 -0 -0 -0 -0 -0 -1 -21 nan nan -45 -39 -39 nan nan nan nan nan nan nan nan nan nan -14 -7 -7 -5 -3 -4 -4 nan nan nan nan nan nan nan nan nan nan nan nan nan nan nan nan nan nan nan nan nan nan nan nan nan nan nan nan nan nan nan nan nan nan nan nan nan nan nan nan nan nan nan nan nan nan nan nan
-0 -0 -0 -0 -0 -0 -0 -0 -0 -0 -0 -0 -0 -0 -0 -1 -14 -14 -13 nan nan nan nan nan nan nan nan nan nan nan nan nan nan nan nan nan nan nan nan -8 -8 -4 nan nan nan nan nan nan nan nan nan nan nan nan nan nan nan nan nan nan nan nan nan nan nan nan nan nan nan nan nan nan nan nan nan nan nan nan nan nan nan nan nan nan nan nan
-0 -0 -0 -0 -0 -0 -0 -0 -0 -0 -0 -0 -0 -0 -0 -0 -9 -9 -8 -34 -34 -23 nan nan nan nan nan nan nan nan nan nan nan nan nan nan nan nan nan -9 -9 -6 -5 nan nan nan nan nan nan nan nan nan nan nan nan nan nan nan nan nan nan nan nan nan nan nan nan nan nan nan nan nan nan nan nan nan nan nan nan nan nan nan nan nan nan nan
-0 -0 -0 -0 -0 -0 -0 -0 -0 -0 -0 -0 -0 -0 -0 -0 -1 -1 -10 -17 -17 -30 nan nan nan nan nan nan nan nan nan nan nan nan nan nan nan nan nan nan nan nan nan -17 -17 -16 nan nan nan nan nan nan nan nan nan nan nan nan nan nan nan nan nan nan nan nan nan nan nan nan nan nan nan nan nan nan nan nan nan nan nan nan nan nan nan nan
-0 -0 -1 -0 -0 -0 -0 -0 -0 -0 -0 -0 -0 -0 -0 -0 -0 -0 -17 -20 -20 -26 nan nan nan nan nan nan nan nan nan nan nan nan nan nan nan nan nan nan nan nan nan nan nan -18 -19 -25 -25 -27 nan nan nan nan nan nan nan nan nan nan nan nan nan nan nan nan nan nan nan nan nan nan nan nan nan nan nan nan nan nan nan nan nan nan nan nan
-0 -1 -1 -1 -1 -0 -0 -0 -0 -0 -0 -0 -0 -0 -0 -0 -0 -0 -13 -27 -27 nan nan nan nan nan nan nan nan nan nan nan nan nan nan nan nan nan nan nan nan nan nan nan nan nan nan -21 -21 -22 -23 -33 nan nan nan nan nan nan nan nan nan nan nan nan nan nan nan nan nan nan nan nan nan nan nan nan nan nan nan nan nan nan nan nan nan nan
-2 -2 -2 -1 -1 -1 -0 -0 -0 -0 -0 -0 -0 -0 -0 -0 -0 -0 nan nan nan nan nan nan nan nan nan nan nan nan nan nan nan nan nan nan nan nan nan nan nan nan nan nan nan nan nan -20 -20 -20 -17 -21 -25 -25 -32 nan nan nan nan nan nan nan nan nan nan nan nan -0 -0 -0 -0 -1 -2 -2 nan nan nan nan nan nan nan nan nan nan nan nan
-2 -2 -1 -2 -2 -1 -0 -0 -0 -0 -0 -0 -0 -0 -0 -0 -0 -0 nan nan nan nan nan nan nan nan nan nan nan nan nan nan nan nan nan nan nan nan nan nan nan nan nan nan nan nan nan nan nan -20 -16 -16 -17 -17 -17 -18 -18 -0 -0 nan nan nan nan -0 -0 -0 -0 -1 -1 -1 -1 -1 -3 -3 nan nan nan nan nan nan nan nan nan nan nan nan
-0 -0 -0 -0 -0 -0 -0 -0 -0 -0 -0 -0 -0 -0 -0 -0 nan nan nan nan nan nan nan nan nan nan nan nan nan nan nan nan nan nan nan nan nan nan nan nan nan nan nan nan nan nan nan nan nan nan -22 -16 -11 -11 -10 -5 -5 -1 -1 -1 -1 -1 -1 -2 -2 -2 -3 -3 -3 -3 -3 -4 nan nan nan nan nan nan nan nan nan nan nan nan nan nan
-0 -0 -0 -0 -0 -0 -0 -0 -0 -0 -0 -0 -0 -0 -0 -0 nan nan nan nan nan nan nan nan nan nan nan nan nan nan nan nan nan nan nan nan nan nan nan nan nan nan nan nan nan nan nan nan nan nan nan -29 -14 -14 -10 -8 -8 -6 -4 -5 -5 -5 -6 -7 -7 -7 -7 -6 -5 -5 nan nan nan nan nan nan nan nan nan nan nan nan nan nan nan nan
-0 -0 -0 -0 -0 -0 -0 -0 -0 -0 -0 -0 -0 -0 -0 -0 nan nan nan nan nan nan nan nan nan nan nan nan nan nan nan nan nan nan nan nan nan nan nan nan nan nan nan nan nan nan nan nan nan nan nan nan nan nan -24 nan nan -9 -8 -8 -8 -9 -11 -11 -11 -11 nan nan nan nan nan nan nan nan nan nan nan nan nan nan nan nan nan nan nan nan
-0 -0 -0 -0 -0 -0 -0 -0 -0 -0 -0 -0 -0 -0 -0 -0 nan nan nan -0 -0 nan nan nan nan nan nan nan nan nan nan nan nan nan nan nan nan nan nan nan nan nan nan nan nan nan nan nan nan nan nan nan nan nan nan nan nan nan nan nan nan nan nan nan nan nan nan nan nan nan nan nan nan nan nan nan nan nan nan nan nan nan nan nan nan nan
-0 -0 -0 -0 -0 -0 -0 -0 -0 -0 -0 -0 -0 -0 -0 nan nan nan nan nan nan nan nan nan nan nan nan nan nan nan nan nan nan nan nan nan nan nan nan nan nan nan nan nan nan nan nan nan nan nan nan nan nan nan nan nan nan nan nan -3 -3 nan nan nan nan nan nan nan nan nan nan nan nan nan nan nan nan nan nan nan nan nan nan nan nan nan
nan nan nan nan nan -0 nan nan -0 -0 -0 -0 -0 -0 -0 nan nan nan nan nan nan nan nan nan nan nan nan nan nan nan nan nan nan nan nan nan nan nan nan nan nan nan nan nan nan nan nan nan nan nan nan nan nan nan nan nan nan nan nan nan nan nan -3 nan nan nan nan nan nan nan nan nan nan nan nan nan nan nan nan nan nan nan nan nan nan nan
nan nan nan nan nan nan nan nan nan nan nan nan nan nan -0 -0 -0 -0 nan nan nan nan nan nan nan nan nan nan nan nan nan nan -0 -0 nan nan nan nan nan nan nan nan nan nan nan nan nan nan nan nan nan nan nan nan nan nan nan nan nan nan nan nan -0 nan nan nan nan nan nan nan nan nan nan nan nan nan nan nan nan nan nan nan nan nan nan nan
nan nan nan nan nan nan nan nan nan nan nan nan nan nan nan -0 -0 -0 nan nan nan nan nan nan nan nan nan nan nan nan nan nan -0 -0 nan nan nan nan nan nan nan nan nan nan nan nan nan nan nan nan nan nan nan nan nan nan nan nan nan nan nan nan nan nan nan nan nan nan nan nan nan nan nan nan nan nan nan nan nan nan nan nan nan nan nan nan
nan nan nan nan nan nan nan nan nan nan nan nan -0 -0 nan nan nan nan -0 nan nan nan nan nan nan nan nan nan nan nan nan nan -0 -0 -0 nan nan nan nan nan nan nan nan nan nan nan nan nan nan nan nan nan nan nan nan nan nan nan nan nan nan nan nan nan nan nan nan nan nan nan nan nan nan nan nan nan nan nan nan nan nan nan nan nan nan nan
nan nan nan nan nan nan nan nan nan nan nan nan nan nan -1 nan nan nan nan nan nan nan nan nan nan nan nan nan nan nan nan nan -0 -0 -0 nan nan nan nan nan nan nan nan nan nan nan nan nan nan nan nan nan nan nan nan nan nan nan nan nan nan nan nan nan nan nan nan nan nan nan nan nan nan nan nan nan nan nan nan nan nan nan nan nan nan nan
nan nan nan nan nan nan nan nan nan nan nan nan nan nan nan nan nan nan nan nan nan nan -0 nan nan nan nan nan nan nan nan nan -0 -0 -0 nan nan nan nan nan nan nan nan nan nan nan nan nan nan nan nan nan nan nan nan nan nan nan nan nan nan nan nan nan nan nan nan nan nan nan nan nan nan nan nan nan nan nan nan nan nan nan nan nan nan nan
nan nan nan nan nan nan nan nan nan nan nan nan nan nan nan nan nan nan nan nan nan nan nan -0 -0 nan -0 nan nan nan nan nan nan nan nan nan nan nan nan nan nan nan nan nan nan nan nan nan nan nan nan nan nan nan nan nan nan nan nan nan nan nan nan nan nan nan nan nan nan nan nan nan nan nan nan nan nan nan nan nan nan nan nan nan nan nan
nan nan nan nan nan nan nan nan nan nan nan nan nan nan nan nan nan nan nan nan nan nan nan nan nan nan -0 -0 nan nan nan nan nan nan nan nan nan nan nan nan nan nan nan nan nan nan nan nan nan nan nan nan nan nan nan nan nan nan nan nan nan nan nan nan nan nan nan nan nan nan nan nan nan nan nan nan nan nan nan nan nan nan nan nan nan nan
nan nan nan nan nan nan nan nan nan nan nan nan nan nan nan nan nan nan nan nan nan nan nan nan nan nan nan nan -0 -0 -0 nan nan nan nan nan nan nan nan nan nan nan nan nan nan nan nan nan nan nan nan nan nan nan nan nan nan nan nan nan nan nan nan nan nan nan nan nan nan nan nan nan nan nan nan nan nan nan nan nan nan nan nan nan nan nan
nan nan nan nan nan nan nan nan nan nan nan nan nan nan nan nan nan nan nan nan nan nan nan nan nan nan nan nan -0 -0 nan nan nan nan nan nan nan nan nan nan nan nan nan nan nan nan nan nan nan nan nan nan nan nan nan nan nan nan nan nan nan nan nan nan nan nan nan nan nan nan nan nan nan nan nan nan nan nan nan nan nan nan nan nan nan nan
nan nan nan nan nan nan nan nan nan nan nan nan nan nan nan nan nan nan nan nan nan nan nan nan nan nan nan nan nan nan nan nan nan nan nan nan nan nan nan nan nan nan nan nan nan nan nan nan nan nan nan nan nan nan nan nan nan nan nan nan nan nan nan nan nan nan nan nan nan nan nan nan nan nan nan nan nan nan nan nan nan nan nan nan nan nan
-0 nan nan nan nan nan nan nan nan nan nan nan nan nan nan nan nan nan nan nan nan nan nan nan nan nan nan nan nan nan nan nan nan nan nan nan nan nan nan nan nan nan nan nan nan nan nan nan nan nan nan nan nan nan nan nan nan nan nan nan nan nan nan nan nan nan nan nan nan nan nan nan nan nan nan nan nan nan nan nan nan nan nan nan nan nan
nan nan nan nan nan nan nan nan nan nan nan nan nan nan nan nan nan nan nan nan nan nan nan nan nan nan nan nan nan nan nan nan nan nan nan nan nan nan nan nan nan nan nan nan nan nan nan nan nan nan nan nan nan nan nan nan nan nan nan nan nan nan nan nan nan nan nan nan nan nan nan nan nan nan nan nan nan nan nan nan nan nan nan nan nan nan
nan nan nan nan nan nan nan nan nan nan nan nan nan nan nan nan nan nan nan nan nan nan nan nan nan nan nan nan nan nan nan nan nan nan nan -0 nan nan nan nan nan nan nan nan nan nan nan nan nan nan nan nan nan nan nan nan nan nan nan nan nan nan nan nan nan nan nan nan nan nan nan nan nan nan nan nan nan nan nan nan nan nan nan nan nan nan
nan nan nan nan nan nan nan nan nan nan nan nan nan nan nan nan nan nan nan nan nan nan nan nan nan nan nan nan nan nan nan nan nan nan nan -0 -0 -0 nan nan nan nan nan nan nan nan nan nan nan nan nan nan nan nan nan nan nan nan nan nan nan nan nan nan nan nan nan nan nan nan nan nan nan nan nan nan nan nan nan nan nan nan nan nan nan nan
nan nan nan nan nan nan nan nan nan nan nan nan nan nan nan nan nan nan nan nan nan nan nan nan nan nan nan nan nan nan nan nan nan nan nan nan nan nan nan nan nan nan nan nan nan nan nan nan nan nan nan nan nan nan nan nan nan nan nan nan nan nan nan nan nan nan nan nan nan nan nan nan nan nan nan nan nan nan nan nan nan nan nan nan nan nan
nan nan nan nan nan nan nan nan nan nan nan nan nan nan nan nan nan nan nan nan nan nan nan nan nan nan nan nan nan nan nan nan nan nan nan nan nan nan nan nan nan nan nan nan nan nan nan nan nan nan nan nan nan nan nan nan nan nan nan nan nan nan nan nan nan nan nan nan nan nan nan nan nan nan nan nan nan nan nan nan nan nan nan nan nan nan
nan nan nan nan nan nan nan nan nan nan nan nan nan nan nan nan nan nan nan nan nan nan nan nan nan nan nan nan nan nan nan nan nan nan nan nan nan nan nan nan nan nan nan nan nan nan nan nan nan nan nan nan nan nan nan nan nan nan nan nan nan nan nan nan nan nan nan nan nan nan nan nan nan nan nan nan nan nan nan nan nan nan nan nan nan nan
nan nan nan nan nan nan nan nan nan nan nan nan nan nan nan nan -0 -0 nan nan nan nan nan nan nan nan nan nan nan nan nan nan nan nan nan nan nan nan nan nan nan nan nan nan nan nan nan nan nan nan nan nan nan nan nan nan nan nan nan nan nan nan nan nan nan nan nan nan nan nan nan nan nan nan nan nan nan nan nan nan nan nan nan nan nan nan
nan nan nan nan nan nan nan nan nan nan nan nan nan nan nan nan nan nan nan nan nan nan nan nan nan nan nan nan nan nan nan nan nan nan nan nan nan nan nan nan nan nan nan nan nan nan nan nan nan nan -1 nan nan nan nan nan nan nan nan nan nan nan nan nan nan nan nan nan nan nan nan nan nan nan nan nan nan nan nan nan nan nan nan nan nan nan
nan nan nan nan nan nan nan nan nan nan nan nan nan nan nan nan nan nan nan nan nan nan nan nan nan nan nan nan nan nan nan nan nan nan nan nan nan nan nan nan nan nan nan nan nan nan nan nan nan nan -0 -0 nan nan nan nan nan nan nan nan nan nan nan nan nan nan nan nan nan nan nan nan nan nan nan nan nan nan nan nan nan nan nan nan nan nan
Wind_Speed
6 6 6 7 6 5 4 2 1 0 1 2 3 3 4 6 7 7 5 4 4 4 4 4 5 5 6 10 13 16 17 18 17 17 17 17 16 16 15 15 14 14 14 14 15 15 16 18 19 20 21 21 20 18 17 16 16 16 16 16 17 19 20 21 20 18 17 16 17 20 23 26 27 27 27 26 25 24 23 23 23 23 24 24 24 23
6 6 5 6 6 6 5 3 2 2 1 1 2 3 5 6 7 7 5 4 4 4 4 5 5 6 7 8 12 15 17 18 17 17 17 17 17 17 16 16 15 15 15 15 15 15 16 17 18 19 20 20 19 17 16 15 16 16 16 16 17 18 20 21 21 20 18 18 20 22 25 27 27 27 27 25 24 23 22 22 22 22 23 23 23 22
6 6 5 5 5 5 5 4 2 3 3 2 2 3 5 7 6 5 4 3 4 4 4 5 5 6 7 8 11 15 17 18 18 18 18 18 18 18 17 17 17 16 16 16 16 16 16 16 17 18 19 18 17 16 15 15 16 16 17 17 17 18 20 21 22 21 20 21 22 24 26 27 27 26 25 24 23 22 21 21 22 22 23 23 23 23
7 7 6 4 4 5 5 4 3 2 3 3 3 3 4 6 6 5 3 3 3 4 4 4 4 5 5 6 8 12 16 18 19 19 19 19 19 18 18 18 18 18 17 17 17 16 16 17 17 18 18 17 16 15 15 15 16 17 17 18 18 18 20 21 22 22 21 23 24 25 26 26 25 25 24 23 22 22 22 22 22 23 24 24 24 23
8 7 6 4 4 5 5 3 2 2 2 2 3 3 3 4 5 4 3 2 3 3 3 3 3 3 3 3 5 9 14 17 18 18 19 19 19 19 19 19 19 19 18 18 17 17 17 17 17 17 16 16 16 15 15 16 16 17 17 18 18 18 20 21 23 23 23 24 25 25 25 24 24 23 23 23 23 23 23 23 24 24 24 24 24 24
8 7 6 5 4 4 3 2 1 1 2 2 2 2 2 3 3 4 3 3 3 3 3 3 3 2 2 2 4 7 10 13 15 16 16 17 18 19 19 19 19 19 19 18 18 17 16 16 15 15 15 15 15 15 15 16 16 16 16 16 17 17 18 21 23 25 26 26 25 25 24 23 23 23 23 23 23 23 24 24 25 25 25 25 24 24
7 6 6 5 5 4 3 2 1 2 2 2 2 2 2 2 3 3 3 3 3 3 3 3 3 4 4 3 3 5 7 9 10 11 12 13 15 17 18 19 19 19 19 18 17 16 15 14 14 13 13 14 14 14 14 14 13 14 14 15 16 16 18 21 24 26 27 27 25 24 24 23 23 23 24 23 23 23 24 24 24 25 25 25 24 24
7 7 6 6 5 4 3 2 2 2 2 2 2 2 2 2 2 3 3 3 3 3 3 4 4 4 4 4 3 4 6 7 8 8 8 8 10 12 15 17 18 19 19 18 17 15 14 13 13 13 13 12 13 13 13 13 14 15 16 17 17 18 19 21 24 27 28 27 26 25 24 24 24 24 24 23 23 23 23 24 24 24 25 24 24 24
8 8 7 6 5 4 4 3 2 1 2 2 2 2 2 2 1 2 3 3 3 2 2 3 3 3 3 3 3 3 5 7 7 6 6 5 5 7 10 13 16 18 19 18 16 15 14 14 14 14 14 14 15 16 17 18 18 19 20 20 20 20 20 22 24 26 27 27 27 26 25 25 24 24 24 23 23 23 23 23 23 24 24 24 24 24
8 8 8 6 5 4 4 3 3 2 1 1 1 1 2 2 2 1 2 3 2 2 1 2 3 3 3 3 3 3 5 7 9 9 9 8 7 6 6 7 10 14 17 17 17 16 16 17 18 18 18 19 20 21 21 22 22 22 22 22 22 22 22 22 24 25 26 27 27 27 26 25 24 24 23 23 23 23 23 22 22 22 22 22 23 23
6 7 7 6 4 3 3 3 2 2 1 1 1 0 1 2 2 2 2 2 2 1 1 2 3 4 4 3 3 3 5 7 9 10 11 11 11 10 10 8 8 10 14 16 18 19 20 22 23 24 24 24 24 24 24 24 24 24 24 24 24 24 24 24 24 25 26 26 27 26 25 25 24 23 23 23 23 22 22 22 21 21 21 21 22 22
5 5 5 5 4 2 1 1 1 1 1 1 1 1 2 2 2 3 2 2 2 2 2 3 3 3 3 3 3 3 4 6 7 7 7 7 8 9 9 9 9 10 13 16 19 22 24 26 27 27 26 26 26 25 25 25 25 25 25 25 25 25 25 25 25 25 25 25 26 25 25 24 24 23 22 22 22 22 21 21 21 20 20 20 21 21
4 4 4 4 3 2 1 1 1 0 1 2 2 3 3 2 2 3 3 2 3 3 2 3 3 3 3 3 3 3 4 5 6 6 5 4 4 4 5 6 7 7 9 11 14 18 23 26 27 27 27 27 27 26 26 26 25 25 25 26 26 26 26 26 26 25 25 25 24 24 24 24 23 23 22 22 22 21 21 21 20 20 20 20 20 20
4 4 3 3 3 2 2 2 2 2 2 3 3 3 3 2 3 3 3 3 3 3 3 3 2 2 2 2 2 3 4 5 6 6 5 4 3 3 4 5 5 6 7 8 10 12 17 20 21 23 26 26 26 26 26 26 26 26 26 26 26 26 26 26 26 25 25 24 24 24 23 23 23 23 22 22 22 21 21 21 21 20 20 20 20 20
3 2 2 2 2 2 2 2 3 3 3 3 3 2 2 3 3 3 4 4 4 4 3 2 1 1 0 0 2 3 5 5 5 6 6 4 3 2 3 5 5 5 6 7 8 10 13 14 15 16 20 23 24 24 25 25 26 27 27 26 26 26 26 26 26 26 25 24 24 24 23 23 23 23 22 22 22 21 21 21 21 21 21 20 20 20
4 4 3 3 2 2 3 3 3 4 3 2 2 3 3 3 3 4 4 4 4 4 3 2 1 1 0 1 1 3 5 5 5 6 8 5 3 2 3 4 5 5 5 6 7 8 9 11 13 15 17 22 24 26 26 26 26 27 27 27 26 26 26 26 26 26 26 25 25 24 24 23 23 23 23 22 22 22 21 21 21 21 21 21 20 20
6 6 5 5 5 5 6 6 6 6 6 5 4 4 4 4 4 4 4 4 4 4 4 3 3 2 2 1 2 3 5 5 6 7 8 6 4 3 3 4 5 5 5 5 6 7 8 9 11 13 16 22 25 26 26 27 27 27 27 27 26 26 26 26 26 26 26 26 25 25 24 24 23 23 23 22 22 22 21 21 21 21 21 21 21 20
5 5 5 5 5 5 5 4 4 5 6 7 6 5 4 3 3 4 4 4 5 5 4 4 3 3 3 3 3 3 4 5 6 7 8 7 6 4 4 5 5 5 5 5 5 6 7 8 10 13 17 23 26 26 26 27 27 27 26 26 26 26 26 26 26 26 26 26 26 25 25 24 24 23 23 23 22 22 22 22 22 21 21 21 21 21
6 6 6 5 5 4 4 4 4 4 4 5 6 7 6 4 3 4 4 4 4 4 4 4 4 4 3 4 4 4 4 6 6 7 8 7 6 5 5 5 5 5 5 5 5 5 6 8 11 16 21 24 26 26 26 26 26 26 26 25 25 25 25 25 26 26 26 26 26 25 25 24 24 23 23 23 23 22 22 22 22 22 22 21 21 20
6 6 6 5 5 5 4 5 5 5 5 5 5 6 7 5 4 4 4 5 4 3 3 3 4 4 4 4 4 4 4 6 6 6 6 6 5 5 5 6 6 6 6 5 4 5 6 8 11 16 21 23 25 26 26 25 25 25 24 24 24 24 24 24 24 24 24 24 24 24 24 23 23 23 23 23 23 22 22 22 22 21 21 21 20 20
6 6 6 5 5 4 4 5 5 6 7 6 5 5 6 6 4 4 4 5 5 4 4 3 4 4 4 5 5 5 5 6 7 6 5 5 4 4 4 6 7 7 6 5 5 6 7 8 9 12 17 21 24 25 25 25 24 24 23 23 23 23 22 22 23 23 22 22 22 22 22 22 22 22 22 22 22 22 21 21 21 21 21 20 20 19
5 6 6 6 6 5 5 6 7 8 9 7 6 4 5 5 5 4 4 5 5 5 4 3 2 1 2 4 4 4 4 6 7 6 6 5 4 4 4 5 6 7 6 5 5 6 7 8 8 10 15 21 23 24 24 24 24 23 22 22 21 21 21 21 21 21 21 21 21 21 21 21 21 22 22 22 22 21 21 21 21 21 20 20 19 19
6 6 6 7 7 6 6 6 7 8 8 7 6 5 4 5 5 5 5 5 4 3 3 3 2 2 2 3 3 4 4 5 6 6 7 6 5 4 3 5 6 6 6 5 6 7 8 7 8 10 15 21 23 23 24 24 24 23 23 22 21 21 21 21 21 21 21 22 22 22 22 23 23 23 23 23 23 22 22 21 21 21 20 20 19 18
7 7 7 7 7 7 7 7 7 7 7 7 6 5 6 6 7 6 3 3 4 4 4 5 4 3 2 3 4 4 3 4 4 5 6 6 5 4 3 5 6 8 7 6 6 7 8 8 7 9 12 19 22 23 24 24 24 24 24 23 23 23 22 22 23 23 23 23 24 24 24 24 25 25 25 25 24 24 23 22 22 21 20 19 19 18
8 8 8 8 10 12 11 11 11 11 11 9 7 7 7 8 7 5 1 3 5 6 6 6 5 4 3 3 3 3 2 3 4 5 6 6 5 5 3 5 7 8 7 7 7 8 8 8 8 8 11 16 20 24 24 25 25 25 25 25 24 24 24 24 24 25 25 25 25 25 25 25 25 25 25 25 24 24 23 23 22 21 20 19 18 18
14 14 15 16 18 20 21 20 21 21 21 16 12 10 9 8 5 2 3 4 5 6 7 7 5 4 3 3 3 3 2 2 3 5 7 7 6 5 4 4 6 7 7 6 7 7 9 9 9 9 9 13 18 22 24 25 25 25 25 25 25 25 25 25 25 25 25 25 25 25 24 24 24 24 24 24 24 23 23 22 21 20 19 18 18 17
22 22 23 24 24 24 25 25 26 27 28 26 22 17 12 8 4 2 4 3 2 4 7 6 5 4 3 3 3 3 3 3 3 4 6 7 7 6 4 4 5 6 7 6 6 7 9 8 8 9 9 10 14 19 24 24 24 24 24 24 24 24 24 24 24 24 24 24 24 24 24 24 24 24 23 23 23 22 22 21 20 19 18 16 14 13
23 23 24 25 25 25 24 25 26 27 29 29 28 25 16 9 6 5 4 3 2 1 6 6 5 4 4 4 4 3 3 3 2 2 5 7 7 6 5 5 5 6 7 6 6 7 8 7 7 7 8 9 12 15 20 22 23 23 23 23 23 23 23 23 23 23 23 24 24 24 24 24 23 23 23 23 22 22 21 20 19 18 15 11 8 7
20 21 22 23 23 23 23 22 23 25 27 28 27 23 16 10 7 5 3 3 2 1 5 5 4 4 4 4 4 3 3 3 3 2 3 7 7 6 5 6 6 6 7 6 6 6 7 6 5 5 6 9 11 12 15 17 19 20 21 22 22 22 22 23 23 23 23 23 23 23 23 23 23 23 22 22 22 21 20 19 17 14 11 8 7 6
16 17 17 19 19 19 18 17 18 20 24 25 24 21 14 9 6 5 4 4 3 0 4 5 4 3 4 5 5 4 3 2 4 3 1 6 7 6 6 6 7 7 7 7 6 5 5 4 4 4 5 8 9 9 10 11 12 13 15 17 19 20 22 22 22 22 22 22 22 22 22 22 22 22 21 21 20 20 19 18 15 11 7 6 6 5
13 13 13 14 14 14 13 13 14 15 18 19 19 16 13 9 7 6 6 6 4 3 4 5 4 3 3 4 5 4 2 1 4 4 1 5 6 6 7 7 7 7 7 7 7 6 4 3 3 4 5 7 8 8 8 9 9 9 10 11 13 16 20 21 21 21 21 21 21 21 21 21 21 20 20 19 19 19 18 16 13 9 7 6 6 5
11 11 11 11 11 11 11 11 11 11 12 13 13 12 12 10 9 8 8 7 6 6 5 5 3 2 1 2 3 3 2 1 4 5 3 3 5 6 6 7 8 7 6 6 7 7 6 4 2 3 5 6 6 6 7 8 7 7 8 9 10 12 17 18 18 18 18 19 20 20 20 20 19 19 19 18 18 17 17 15 12 9 6 6 6 5
10 10 10 10 10 10 10 10 10 10 10 10 10 10 10 10 10 10 9 8 8 8 7 7 5 5 4 4 4 3 2 2 4 6 5 1 4 5 6 7 8 8 6 5 5 6 6 5 5 4 5 5 6 6 7 7 6 6 7 7 8 9 12 12 12 12 12 14 15 16 18 18 18 18 18 18 17 17 16 15 13 10 7 5 5 5
10 10 10 10 10 10 10 11 11 11 10 10 10 10 9 9 10 10 10 10 9 9 9 8 6 5 4 4 4 4 3 3 5 6 6 2 3 5 6 7 8 8 7 6 5 6 6 6 6 6 6 5 5 5 6 6 6 5 6 6 6 6 7 8 8 8 9 8 8 9 11 12 14 15 16 16 16 16 16 15 14 12 10 6 5 5
9 10 10 10 10 10 11 11 11 11 10 10 10 10 9 9 9 10 10 10 10 9 9 8 7 6 5 4 4 4 3 4 6 7 5 2 2 4 6 6 7 8 9 8 8 7 6 7 8 8 7 6 5 5 5 5 5 5 5 6 6 6 5 6 6 7 7 7 6 6 6 6 8 9 11 13 14 15 15 15 14 13 12 10 7 5
9 10 10 10 10 10 10 11 11 11 11 10 10 9 9 9 9 9 9 9 9 10 10 9 8 8 6 5 4 3 3 4 5 6 6 3 2 3 4 5 6 7 9 9 10 9 8 8 8 9 9 8 6 5 4 5 5 5 6 6 6 6 5 6 6 6 6 6 6 5 5 5 5 6 8 12 14 15 15 15 14 14 13 12 11 9
9 10 10 10 10 10 10 10 10 10 10 10 9 9 9 9 9 9 9 9 9 9 9 10 10 9 9 6 4 3 2 3 5 6 7 5 3 3 3 4 4 6 7 9 10 10 9 9 9 9 8 8 7 5 5 4 5 6 6 6 6 6 5 5 5 6 6 7 6 6 5 5 5 6 8 11 13 13 13 14 14 13 13 13 12 11
10 10 10 10 9 9 9 9 9 9 9 9 9 9 9 9 9 9 8 9 10 10 9 9 9 10 13 11 9 7 6 8 9 10 11 8 6 5 4 4 4 4 5 8 9 10 10 10 11 10 7 7 7 7 7 6 6 6 6 6 6 6 5 5 5 5 6 6 7 6 6 5 5 5 6 7 7 7 7 8 9 10 11 11 11 11
10 10 10 10 10 9 9 9 9 9 8 8 8 8 8 8 9 9 9 9 10 10 10 9 8 9 12 13 14 14 13 13 14 14 13 11 8 6 5 5 5 5 4 5 7 9 10 10 10 10 9 8 8 7 6 6 7 7 7 6 6 6 5 5 5 5 5 5 6 7 6 5 5 5 4 4 4 4 4 4 5 6 6 6 7 8
10 9 9 10 9 9 9 9 8 8 8 8 8 9 8 8 8 8 9 9 9 9 10 9 9 9 10 12 14 16 16 15 14 14 13 12 9 7 6 6 6 5 5 5 5 6 7 8 9 10 11 10 9 7 6 6 6 7 8 6 5 5 4 4 4 4 4 4 5 5 4 4 4 4 4 4 4 4 4 3 3 4 4 3 3 4
10 9 9 9 9 9 8 8 8 7 7 7 8 8 8 8 8 8 8 9 9 9 9 9 8 9 10 12 14 15 16 15 16 15 14 14 12 9 7 6 5 5 5 5 5 5 6 8 9 9 9 9 10 9 9 7 8 8 8 7 6 5 5 5 4 4 4 4 4 4 5 5 5 5 5 5 4 4 4 4 4 4 3 3 3 3
10 9 9 8 8 8 8 8 8 8 8 8 8 9 9 9 8 8 8 9 9 9 9 8 8 9 10 11 12 13 14 15 15 15 15 15 13 11 8 6 5 4 5 6 6 6 7 8 9 9 9 9 9 9 8 7 7 7 8 8 8 7 6 5 4 4 4 4 4 5 6 5 5 5 6 5 5 4 5 5 5 5 4 3 3 3
9 8 8 8 8 8 8 8 9 9 9 8 9 9 9 9 9 9 9 9 9 9 9 8 8 8 9 10 10 11 12 13 14 15 15 15 14 12 9 8 6 5 4 6 7 7 7 9 8 8 7 8 8 9 10 8 8 7 7 7 7 6 5 4 3 3 4 4 4 4 5 5 5 4 5 4 4 4 4 5 6 6 4 3 3 2
8 8 8 8 8 8 8 9 9 9 9 9 9 9 9 9 9 9 9 9 9 9 9 7 7 7 9 10 10 9 9 11 13 15 15 16 15 13 11 10 8 7 5 6 6 7 8 9 8 7 6 7 8 8 9 8 8 7 5 5 5 5 5 4 4 4 4 4 4 4 4 4 4 4 4 4 3 3 3 4 3 3 3 3 3 3
7 8 8 8 8 9 9 9 9 9 9 9 9 9 9 10 10 10 9 9 9 9 8 7 6 7 9 9 8 8 7 9 10 11 13 15 16 15 13 11 9 8 8 7 6 6 7 8 8 7 6 7 7 8 8 8 8 7 7 6 7 7 6 5 5 4 5 4 4 4 3 3 3 3 4 3 3 3 3 3 3 3 3 3 3 3
8 8 8 8 8 9 10 9 9 9 9 9 9 9 9 9 9 9 10 9 9 9 8 8 7 8 8 8 7 7 7 7 8 9 9 10 12 12 12 11 10 9 8 8 8 8 7 8 8 8 7 8 8 8 7 7 7 7 7 7 8 7 7 6 5 5 5 4 4 3 3 3 3 3 3 3 3 3 2 2 2 2 2 2 2 3
8 8 8 8 8 8 9 9 9 9 9 9 9 9 9 9 9 9 9 9 9 8 8 8 9 9 9 8 7 7 7 8 8 7 7 8 9 10 10 10 10 11 10 10 10 10 10 9 8 7 8 8 8 7 7 7 7 7 7 7 7 7 7 5 5 4 4 4 3 3 2 3 3 3 3 3 2 2 2 2 2 2 2 2 2 2
8 8 8 8 8 8 8 8 8 8 9 9 9 9 9 10 10 10 9 9 9 8 8 8 9 9 9 9 9 9 9 8 8 7 7 7 7 7 8 8 9 10 11 12 13 13 12 12 11 9 7 7 7 7 7 7 7 7 6 6 7 7 7 5 4 4 4 4 3 3 3 3 3 3 3 3 2 2 2 2 2 2 1 2 2 2
7 8 8 8 8 8 8 8 8 8 8 9 8 8 8 10 11 11 9 9 8 8 8 9 9 9 9 9 9 9 9 8 8 7 7 6 6 5 6 6 6 7 9 10 11 12 13 14 14 13 10 8 7 7 8 7 7 7 6 6 6 6 6 5 4 4 4 4 4 4 4 3 3 3 4 3 3 2 2 2 3 3 2 1 2 2
7 7 7 7 7 8 8 8 8 8 8 8 8 8 8 8 9 9 8 8 8 8 8 8 8 8 9 8 8 9 9 8 8 7 7 6 5 5 4 4 4 5 6 7 7 8 9 10 12 14 15 13 10 7 6 7 7 7 7 6 6 5 5 5 4 4 4 4 4 4 4 3 3 3 4 3 3 2 2 2 3 3 3 2 2 2
7 7 7 7 7 7 7 7 8 8 8 8 8 8 7 8 8 8 8 8 8 8 8 8 8 8 8 8 8 8 9 8 8 8 8 6 6 5 4 4 3 3 4 4 5 5 5 6 7 9 13 16 15 11 5 5 6 6 6 5 4 4 4 4 4 3 4 4 3 3 4 3 3 3 3 3 2 2 2 2 2 3 3 3 2 2
Wind_Direction
268 274 280 282 282 281 276 257 231 276 316 316 310 298 281 264 255 248 238 217 206 205 211 218 218 212 206 208 210 212 214 215 216 217 218 219 220 220 219 217 215 213 210 208 207 206 206 206 204 202 200 197 195 195 197 201 205 209 210 203 193 183 174 169 166 166 170 175 174 168 160 154 150 148 146 146 145 143 140 137 133 129 126 125 125 125
266 270 271 270 270 272 274 257 217 180 210 266 276 272 265 259 251 245 240 224 211 208 210 217 220 219 215 212 211 211 212 213 214 215 217 218 219 220 219 218 217 215 213 211 209 208 207 207 206 204 203 201 200 201 203 207 211 214 216 211 202 190 177 169 166 166 170 175 172 165 157 152 150 148 148 147 145 143 140 136 132 129 126 126 126 127
265 266 264 263 263 264 269 258 227 186 184 204 227 248 258 259 254 246 238 227 216 210 208 208 210 213 213 211 209 208 209 211 212 213 214 215 216 217 217 217 217 216 215 213 211 209 208 208 208 207 206 205 204 206 208 210 213 216 217 214 206 194 179 169 165 165 169 171 167 161 155 151 149 148 148 146 144 142 138 135 132 130 129 129 129 130
262 263 262 263 261 259 260 253 230 196 186 189 195 218 249 258 257 252 247 235 222 214 206 198 196 198 203 203 204 205 206 208 209 210 211 211 212 212 213 214 215 214 214 213 211 210 208 208 208 208 207 205 206 208 210 212 215 216 216 212 205 194 180 170 164 163 166 165 161 156 151 149 147 146 145 143 141 138 136 134 133 132 131 131 132 132
255 258 261 261 260 259 256 247 221 184 178 180 179 189 223 250 257 258 257 246 233 221 211 196 187 184 184 188 197 201 203 204 205 205 205 205 205 206 207 209 211 212 212 211 210 209 208 206 206 204 202 202 204 207 211 213 214 214 212 207 201 191 181 169 162 160 161 158 154 150 147 145 143 141 139 138 136 135 134 133 133 132 132 132 132 132
252 255 258 256 255 253 252 242 205 162 157 170 172 177 192 234 255 263 262 249 236 227 220 210 203 200 199 197 196 195 193 194 195 196 197 197 197 199 200 203 205 207 208 208 207 205 203 201 198 196 194 197 201 205 209 210 208 205 200 195 190 184 177 165 158 153 152 150 147 144 141 139 137 136 134 134 133 133 132 132 132 132 132 132 132 132
252 254 255 254 252 249 244 236 199 159 149 163 170 173 177 212 247 264 264 251 237 227 222 223 226 230 230 230 208 183 170 168 168 172 178 183 187 190 194 197 199 201 203 202 201 197 193 189 185 183 185 189 193 196 199 195 189 181 173 169 167 166 164 156 150 146 144 142 139 137 135 134 133 132 132 131 131 131 131 132 132 133 132 132 132 132
252 253 253 252 251 250 248 243 214 170 153 158 166 169 165 186 231 259 266 260 251 238 227 228 231 233 231 228 208 170 145 138 134 136 149 161 171 180 186 191 194 196 197 196 192 186 179 172 169 168 172 173 172 170 169 162 154 147 143 143 144 145 146 143 140 137 135 134 133 131 131 130 130 130 130 130 130 130 131 131 132 132 132 132 131 131
247 249 250 247 244 243 247 251 242 201 161 161 166 168 162 172 209 254 267 266 263 253 231 221 217 215 211 204 183 150 125 117 112 110 113 119 138 159 174 183 189 192 192 188 182 174 164 157 154 153 154 151 146 142 139 136 132 129 127 127 128 130 130 130 130 129 128 128 128 128 129 129 129 129 129 130 130 130 130 131 131 131 131 131 130 129
243 245 247 245 240 234 232 242 245 231 167 157 159 163 157 162 183 233 262 265 267 262 237 213 200 190 180 174 158 135 116 107 101 96 91 87 89 101 122 153 176 183 180 177 171 162 152 146 143 142 141 138 135 132 130 127 125 123 121 120 120 120 120 120 121 122 123 124 125 126 127 127 128 128 128 128 128 128 128 129 129 129 129 128 128 127
239 241 243 245 245 241 229 230 229 216 148 133 136 173 188 166 171 195 241 253 253 243 230 216 199 183 165 157 147 131 117 107 100 93 86 82 80 82 84 97 125 149 157 157 154 149 143 139 136 135 134 133 131 129 127 124 122 121 120 119 118 117 116 117 117 118 120 121 122 124 124 125 125 126 126 126 126 126 125 125 126 125 125 125 124 124
235 234 236 239 243 247 250 244 230 183 130 140 170 220 238 197 175 177 210 232 231 216 207 207 196 178 154 146 140 131 123 113 106 98 88 80 77 77 79 84 96 112 130 136 138 138 137 134 133 132 131 131 130 128 125 123 121 120 119 119 118 118 117 117 117 117 118 119 120 121 122 122 123 123 123 122 122 122 122 121 121 121 121 121 121 121
230 227 227 231 234 240 256 278 284 233 173 181 197 211 222 207 183 174 187 216 220 210 196 195 184 165 138 134 134 133 126 115 108 102 94 84 76 75 79 81 86 95 109 120 128 132 133 131 129 128 128 128 127 125 123 122 121 120 120 119 119 118 118 118 117 117 117 118 118 119 119 119 119 119 119 118 118 118 117 117 117 117 117 117 118 118
226 226 229 232 237 243 249 254 253 244 223 212 211 213 213 199 184 176 178 199 209 207 194 189 177 157 125 128 133 133 124 116 110 105 99 90 79 75 81 82 81 84 94 104 115 123 127 126 125 125 126 125 124 123 122 122 121 121 120 120 119 119 119 118 118 117 117 117 117 117 117 116 116 115 115 114 114 114 114 114 114 114 114 115 116 117
255 254 255 249 250 253 257 253 254 251 241 224 217 215 213 199 189 182 179 189 197 202 199 199 193 174 61 129 141 135 124 119 115 111 107 99 85 74 80 83 81 82 87 96 104 111 116 118 120 122 123 123 123 123 122 122 122 122 121 121 120 120 120 119 118 118 117 116 116 115 115 114 114 113 112 112 111 111 111 111 112 112 112 113 114 115
351 356 358 352 344 341 344 331 309 294 289 267 239 219 208 201 195 189 182 183 189 194 192 184 176 164 23 12 127 135 130 123 118 114 112 106 96 81 80 84 83 82 82 89 96 101 106 110 113 116 119 119 120 120 120 122 122 121 121 121 121 121 120 119 119 118 117 116 115 114 113 113 112 112 111 110 110 109 109 109 110 110 110 111 112 112
6 10 12 13 12 10 8 0 348 336 331 320 295 259 227 209 198 189 182 179 184 189 186 179 173 164 146 113 120 133 136 128 122 117 113 110 106 96 90 87 85 82 78 81 87 94 98 103 107 110 114 115 116 117 117 118 119 119 119 119 119 119 119 119 118 118 117 115 115 114 113 112 112 111 110 110 109 108 108 108 108 108 109 109 110 111
11 13 13 12 8 4 1 354 347 342 341 334 325 309 273 233 205 189 180 176 182 189 188 188 186 176 155 146 148 150 143 132 126 120 115 113 110 106 100 94 89 83 77 75 77 82 87 95 102 107 111 112 113 113 114 114 114 115 115 116 116 117 117 117 116 116 115 114 114 113 112 111 111 110 109 109 108 108 107 107 107 107 108 109 109 110
12 13 10 6 357 348 343 345 343 340 339 334 326 318 307 275 231 201 182 174 177 184 185 190 190 183 160 146 146 149 146 135 128 122 117 115 114 114 112 106 100 93 85 78 76 78 82 91 100 107 111 112 112 112 111 111 111 111 111 112 112 113 113 113 113 113 113 112 112 111 111 110 109 109 108 108 107 107 107 107 108 108 109 110 110 111
13 14 10 360 348 341 341 344 341 335 329 322 313 305 298 284 255 216 188 173 168 168 173 188 192 185 160 141 137 141 146 134 127 120 115 112 113 116 119 115 111 105 96 89 87 90 93 98 105 111 114 114 114 113 113 112 111 111 110 110 110 110 110 109 109 109 109 109 109 109 109 109 109 109 108 108 108 108 108 108 109 109 110 111 111 111
13 12 5 354 345 341 342 338 333 329 325 321 311 298 290 281 259 223 190 172 163 161 164 186 197 190 161 141 140 146 149 135 127 121 114 107 104 107 115 115 111 106 100 97 99 104 107 108 111 114 116 117 117 117 116 115 114 113 112 111 110 109 108 107 107 107 107 107 109 110 109 110 110 109 109 109 109 109 109 110 110 111 112 112 112 111
11 6 358 354 350 346 341 333 331 332 333 328 317 302 293 287 271 239 200 182 171 165 161 171 184 185 143 133 139 146 145 135 130 125 117 108 103 102 108 111 109 105 102 102 105 109 112 113 115 117 120 121 122 121 121 120 119 118 117 116 114 113 112 111 111 112 113 115 116 117 117 118 117 116 115 114 114 113 114 114 114 114 114 114 113 112
8 3 358 357 355 349 341 338 338 339 340 333 320 302 287 288 286 270 222 196 174 150 126 103 74 51 64 107 122 129 131 132 130 124 115 111 110 110 110 111 108 105 104 107 109 110 110 112 116 120 123 126 126 126 126 126 126 126 126 125 124 123 123 123 124 125 127 128 129 130 129 129 127 126 124 123 122 121 120 119 119 118 117 116 115 113
7 5 3 1 359 356 349 349 350 350 349 341 327 307 286 276 275 272 247 167 131 112 103 94 87 80 83 109 116 120 127 134 130 121 110 110 112 115 118 114 109 106 105 105 106 107 108 109 113 119 124 128 129 129 130 131 132 133 134 135 135 135 135 136 136 137 138 138 138 138 136 134 133 131 129 128 127 125 124 123 121 120 119 117 115 114
11 10 10 10 10 10 7 6 6 6 4 355 341 324 303 282 268 254 204 116 112 114 118 118 121 128 139 133 123 117 123 132 128 120 113 110 110 111 115 115 112 110 107 102 102 103 105 106 108 114 120 126 128 129 131 133 134 136 138 140 140 141 142 142 142 142 141 140 139 137 135 133 131 130 128 127 126 125 124 122 121 119 118 116 114 113
18 17 17 17 17 16 14 13 14 15 15 10 0 344 324 301 279 237 102 99 112 124 128 129 134 142 151 137 126 121 125 125 124 122 120 116 114 112 110 111 109 107 105 99 96 98 100 103 105 109 114 121 125 127 129 130 132 134 137 138 139 140 140 140 139 139 137 136 134 132 131 129 127 125 124 123 122 121 120 119 118 116 115 113 112 111
20 20 19 19 19 18 16 14 15 17 18 14 9 1 345 329 329 40 58 49 91 129 133 133 136 141 146 134 129 128 129 122 119 122 126 118 114 112 113 111 108 104 99 91 85 84 89 94 100 104 107 114 119 122 123 124 126 128 130 131 132 132 132 132 132 131 130 129 128 127 126 125 123 122 120 119 118 117 116 115 114 112 110 108 108 108
19 19 19 19 19 18 17 15 16 17 19 16 11 6 358 352 5 32 36 352 332 141 134 134 137 142 146 137 128 117 105 88 74 98 132 115 112 114 123 121 113 106 101 92 78 69 68 72 80 91 100 106 112 115 116 116 118 119 120 122 123 123 124 124 124 124 124 124 124 123 123 121 120 119 118 116 115 115 114 113 111 109 106 103 101 101
16 16 17 17 17 17 17 16 16 18 20 18 14 9 3 2 10 19 11 330 307 192 135 130 131 135 135 128 115 94 70 42 7 0 131 114 114 121 132 129 123 116 111 102 84 65 51 45 48 64 88 99 105 108 109 109 110 111 112 114 115 116 117 118 119 119 120 120 120 120 119 118 118 117 116 115 115 114 114 112 110 108 103 101 99 97
12 12 13 14 14 14 15 15 16 17 20 19 15 9 3 1 3 6 1 345 331 9 125 114 112 119 129 127 118 99 64 16 344 339 112 123 126 130 137 133 131 128 123 115 101 80 57 34 28 41 70 87 93 97 101 103 105 107 108 109 109 111 112 113 114 115 116 116 116 116 116 115 115 114 114 114 115 115 114 113 112 109 105 104 102 100
9 10 10 9 9 10 12 14 15 16 18 18 14 8 0 357 358 5 11 7 1 14 82 94 100 115 140 137 128 116 96 349 331 335 18 130 133 135 139 135 134 134 132 128 123 116 103 59 31 39 63 76 81 84 89 94 99 103 106 106 107 108 110 111 111 111 111 112 112 112 111 111 111 112 112 113 113 114 115 114 113 112 110 109 109 108
10 10 9 7 7 8 10 12 13 14 15 16 12 6 358 357 1 9 17 16 15 21 41 54 57 53 49 83 94 98 99 344 332 336 351 120 131 134 138 134 133 133 133 129 126 125 124 118 96 74 73 76 76 76 76 82 89 98 104 106 108 109 109 109 108 108 107 108 107 107 107 106 106 107 107 109 110 111 112 112 111 110 111 113 114 117
11 12 10 9 8 9 10 11 12 12 12 13 10 5 358 359 4 12 20 21 23 27 35 37 35 31 32 45 54 60 60 360 339 342 351 79 129 133 135 132 132 130 124 111 104 106 112 120 121 110 91 82 76 72 70 72 78 88 99 104 106 108 108 106 105 104 103 103 103 102 101 101 101 101 102 103 104 105 105 105 104 104 106 111 117 119
12 14 14 12 11 11 11 12 11 11 9 9 8 5 360 1 7 14 21 24 27 31 36 37 35 34 41 54 56 50 33 0 348 348 353 19 125 133 131 134 133 129 123 111 101 97 99 112 118 116 105 90 79 72 70 70 73 78 87 95 99 102 102 102 101 100 98 96 95 93 92 94 95 95 96 97 97 98 98 97 96 94 93 99 107 114
14 16 17 15 14 12 11 11 10 9 7 6 5 3 1 3 9 16 22 25 29 32 36 36 35 33 35 43 48 41 17 348 345 348 355 5 105 128 128 133 134 132 129 127 123 120 115 117 119 118 114 104 90 77 71 73 76 77 79 84 88 92 94 97 100 101 98 94 88 84 80 83 86 88 91 93 94 94 93 92 90 88 86 87 90 95
16 18 19 18 16 13 12 11 9 7 5 3 1 0 359 3 9 16 21 25 30 33 37 38 38 37 36 41 45 40 11 339 342 352 4 10 58 107 117 127 131 132 131 132 131 129 127 123 119 117 114 112 105 94 82 82 83 83 81 81 82 83 86 91 97 101 101 97 93 89 84 84 85 87 91 92 92 91 90 89 87 85 83 82 81 82
18 19 19 19 17 14 12 10 9 6 3 360 358 358 358 3 8 15 21 26 30 34 37 38 39 39 39 44 49 47 25 3 7 14 21 25 40 68 90 106 119 126 131 134 134 132 128 125 121 117 113 112 112 113 113 106 97 91 87 85 84 83 83 86 91 97 100 100 99 97 93 92 90 90 92 92 91 89 87 85 84 83 82 80 79 78
18 18 18 18 17 15 12 10 8 6 1 358 356 355 357 4 10 16 22 28 32 35 37 36 35 34 33 37 39 39 37 31 29 29 30 32 40 55 73 86 96 106 119 129 133 134 132 129 127 124 118 111 111 116 123 120 112 104 98 92 87 84 81 82 86 92 97 101 101 100 97 94 92 91 92 90 88 84 82 80 78 78 79 78 77 76
18 17 16 16 16 14 12 10 7 3 359 356 355 356 358 6 13 19 24 29 33 35 36 37 36 33 30 31 32 33 34 33 31 31 32 34 38 48 66 79 86 90 94 114 125 131 132 130 130 128 125 120 117 117 118 116 114 113 111 99 88 80 78 80 83 88 96 101 103 103 101 98 96 96 95 93 91 89 87 83 77 75 75 74 75 75
17 16 14 14 14 13 12 8 5 1 358 357 358 360 3 8 14 19 24 28 32 33 34 35 37 38 35 33 32 31 31 31 31 31 32 33 35 42 55 71 85 93 96 102 110 116 118 119 120 122 124 125 126 125 121 118 120 122 120 110 99 89 84 84 83 84 88 96 102 106 107 103 100 97 94 90 89 89 88 84 77 73 73 77 80 79
16 14 12 10 9 9 10 6 3 2 2 2 4 7 9 11 13 16 19 24 27 28 27 30 34 38 39 37 35 32 31 32 32 33 35 34 35 39 48 62 78 92 98 95 92 93 99 107 112 116 118 121 122 121 120 123 125 124 119 114 112 109 102 93 89 89 89 92 98 104 106 100 94 89 85 81 78 77 78 81 78 72 67 75 88 98
14 12 9 6 5 5 5 3 4 6 7 10 13 14 13 13 14 16 19 22 23 23 22 24 29 35 40 39 36 33 32 32 33 35 37 37 38 41 47 53 64 79 93 91 87 85 90 100 108 114 119 121 121 119 118 118 115 112 109 112 113 110 99 89 85 87 91 89 89 91 93 91 87 84 83 81 77 73 72 76 76 75 70 68 77 93
10 8 5 4 3 2 3 5 7 9 11 14 17 18 16 15 16 19 23 26 25 24 22 23 28 36 44 41 37 33 31 32 34 37 39 39 40 43 47 50 54 64 84 92 91 87 85 87 92 101 111 117 119 119 119 116 110 106 108 116 119 118 109 101 91 84 84 82 81 80 81 83 84 85 83 81 76 70 66 70 72 72 72 75 75 78
7 5 4 4 3 4 7 10 11 12 13 16 17 17 16 16 19 22 27 29 28 26 23 22 27 38 46 44 40 35 31 31 34 37 40 40 41 43 47 49 50 53 64 86 97 99 95 87 86 90 98 104 108 110 112 113 112 111 110 110 108 107 111 114 109 97 86 81 77 74 75 79 82 80 76 69 63 58 58 60 57 55 57 65 70 71
6 6 6 7 8 9 11 12 12 12 14 16 17 16 15 17 20 24 29 30 31 29 26 22 28 38 43 41 39 37 34 33 34 36 38 39 41 43 46 49 52 54 57 66 81 95 102 100 98 96 94 95 98 101 106 110 111 110 106 99 94 92 93 97 97 94 90 84 77 69 64 69 74 75 69 62 56 54 55 62 62 58 49 52 60 66
8 8 8 8 10 12 13 12 12 14 16 18 17 16 15 17 21 26 29 31 33 33 30 30 36 42 44 39 37 36 37 35 34 34 35 36 38 40 44 48 52 57 61 63 66 72 83 95 103 105 102 96 92 91 95 103 106 107 105 102 100 98 95 90 88 87 88 85 78 66 53 58 65 70 71 65 56 47 43 56 69 75 68 63 64 68
10 9 8 9 10 11 11 11 13 15 18 18 17 16 15 18 22 26 29 30 33 34 34 36 42 46 45 41 38 37 39 38 36 35 35 37 39 42 46 50 54 58 65 68 69 68 68 73 81 92 101 101 97 93 88 91 96 101 105 105 104 101 97 92 87 84 83 82 74 61 47 55 61 66 69 64 53 37 20 22 36 59 81 83 78 73
11 9 8 9 9 10 10 11 13 16 19 18 17 16 15 19 24 28 30 29 31 34 36 39 43 46 45 41 38 38 40 40 39 37 36 36 39 43 47 53 58 62 66 70 71 71 69 65 64 66 77 89 97 99 97 92 91 93 96 98 98 97 95 92 87 81 76 71 64 57 57 66 73 77 74 64 50 32 10 359 358 6 38 79 89 87
12 11 9 10 11 11 11 11 14 17 19 19 18 17 16 20 25 29 31 30 32 35 37 40 43 46 46 41 37 35 37 39 39 37 35 34 36 40 47 54 62 69 72 73 73 72 70 65 60 56 56 65 79 91 97 95 93 91 90 91 92 94 94 91 86 79 72 65 59 55 57 67 78 84 84 74 59 36 4 349 344 344 354 35 78 94
14 13 11 12 13 13 11 12 15 17 19 20 19 19 18 20 23 26 29 32 34 37 39 40 43 45 46 42 37 34 34 35 35 34 30 27 27 32 40 48 60 72 78 77 77 75 73 67 60 54 49 49 55 69 88 93 95 94 90 88 90 92 94 92 88 81 75 69 62 57 56 56 60 68 77 79 70 47 10 352 343 340 341 2 35 66
15 14 13 13 14 13 11 13 16 19 20 21 21 21 21 23 25 26 29 32 35 37 38 40 43 45 46 42 38 35 34 34 34 32 26 21 20 23 28 32 44 64 80 83 82 81 80 76 67 55 45 40 40 45 69 84 94 97 94 91 89 90 92 91 88 82 77 72 65 61 58 54 52 56 71 80 77 58 26 359 342 335 336 353 16 33